Kelso-Longview, WA
on Friday, January 11, 2013

Friday
Previous Day Next Day
Daily Summary
 ActualAverage (KSPB)Record (KSPB)
Temperature
Mean Temperature °F °F  
Max Temperature 39°F °F 56°F (2014)
Min Temperature 26°F °F 23°F (2011)
Degree Days
Heating Degree Days 32    
Month to date heating degree days  
Since 1 July heating degree days  
Cooling Degree Days 0    
Month to date cooling degree days  
Year to date cooling degree days  
Moisture
Dew Point 27°F   
Average Humidity 82    
Maximum Humidity 93    
Minimum Humidity 52    
Precipitation
Precipitation 0.00 in in 0.82 in (2014)
Month to date precipitation  
Year to date precipitation  
Wind
Wind Speed 1 mph   
Max Wind Speed 9 mph   
Max Gust Speed mph   
Visibility 7 miles   
Events     

Key: T is trace of precipitation, MM is missing value
Source: NWS Daily Summary
Time(PST)TemperatureDew PointHumidity Pressure Visibility Wind DirectionWind SpeedGust SpeedPrecipitationEvents Conditions
12:15 AM 33.8°F 30.2°F 87% 30.13 in 10.0 miles Calm Calm - N/A   Mostly Cloudy
12:35 AM 33.8°F 30.2°F 87% 30.13 in 7.0 miles Calm Calm - N/A   Mostly Cloudy
12:55 AM 33.8°F 30.2°F 87% 30.13 in 9.0 miles Calm Calm - N/A   Overcast
1:15 AM 33.8°F 30.2°F 87% 30.13 in 8.0 miles Calm Calm - N/A   Mostly Cloudy
1:35 AM 33.8°F 30.2°F 87% 30.13 in 5.0 miles Calm Calm - N/A   Overcast
1:55 AM 33.8°F 30.2°F 87% 30.14 in 0.5 miles Calm Calm - N/A   Overcast
2:15 AM 32.0°F 28.4°F 87% 30.15 in 0.8 miles NW 3.5 mph - N/A   Overcast
2:35 AM 32.0°F 28.4°F 87% 30.15 in 0.2 miles NNE 3.5 mph - N/A   Overcast
2:55 AM 32.0°F 30.2°F 93% 30.16 in 0.2 miles Calm Calm - N/A   Overcast
3:15 AM 32.0°F 30.2°F 93% 30.16 in 0.5 miles NNW 3.5 mph - N/A   Overcast
3:35 AM 32.0°F 28.4°F 87% 30.16 in 0.2 miles North 3.5 mph - N/A   Overcast
4:15 AM 30.2°F 28.4°F 93% 30.16 in 0.2 miles Calm Calm - N/A   Overcast
4:35 AM 30.2°F 28.4°F 93% 30.16 in 0.2 miles Calm Calm - N/A   Overcast
4:55 AM 30.2°F 28.4°F 93% 30.17 in 0.2 miles Calm Calm - N/A   Overcast
5:15 AM 30.2°F 28.4°F 93% 30.17 in 0.2 miles Calm Calm - N/A   Overcast
5:35 AM 30.2°F 28.4°F 93% 30.17 in 0.2 miles Calm Calm - N/A   Overcast
5:55 AM 30.2°F 28.4°F 93% 30.18 in 0.2 miles Calm Calm - N/A   Overcast
6:15 AM 30.2°F 28.4°F 93% 30.19 in 0.2 miles North 3.5 mph - N/A   Overcast
6:35 AM 30.2°F 28.4°F 93% 30.20 in 0.5 miles Calm Calm - N/A   Overcast
6:55 AM 30.2°F 28.4°F 93% 30.21 in 0.5 miles Calm Calm - N/A   Overcast
7:35 AM 30.2°F 28.4°F 93% 30.23 in 1.8 miles Calm Calm - N/A   Overcast
7:55 AM 30.2°F 28.4°F 93% 30.24 in 7.0 miles Calm Calm - N/A   Overcast
8:15 AM 30.2°F 28.4°F 93% 30.25 in 5.0 miles Calm Calm - N/A   Overcast
8:35 AM 30.2°F 28.4°F 93% 30.26 in 5.0 miles WNW 3.5 mph - N/A   Overcast
8:55 AM 30.2°F 28.4°F 93% 30.26 in 7.0 miles WNW 3.5 mph - N/A   Overcast
9:15 AM 30.2°F 28.4°F 93% 30.28 in 10.0 miles Calm Calm - N/A   Overcast
9:35 AM 30.2°F 28.4°F 93% 30.28 in 9.0 miles WNW 3.5 mph - N/A   Overcast
9:55 AM 32.0°F 28.4°F 87% 30.28 in 9.0 miles Calm Calm - N/A   Overcast
10:15 AM 32.0°F 30.2°F 93% 30.28 in 9.0 miles WNW 3.5 mph - N/A   Overcast
10:35 AM 33.8°F 28.4°F 81% 30.29 in 10.0 miles West 5.8 mph - N/A   Mostly Cloudy
10:55 AM 33.8°F 30.2°F 87% 30.29 in 10.0 miles NW 4.6 mph - N/A   Scattered Clouds
11:15 AM 35.6°F 30.2°F 81% 30.28 in 10.0 miles NNW 5.8 mph - N/A   Clear
11:35 AM 33.8°F 28.4°F 81% 30.29 in 10.0 miles SW 3.5 mph - N/A   Scattered Clouds
12:15 PM 37.4°F 26.6°F 65% 30.29 in 10.0 miles North 6.9 mph - N/A   Mostly Cloudy
12:35 PM 37.4°F 28.4°F 70% 30.29 in 10.0 miles NNW 6.9 mph - N/A   Partly Cloudy
12:55 PM 37.4°F 28.4°F 70% 30.29 in 10.0 miles North 6.9 mph - N/A   Clear
1:15 PM 37.4°F 26.6°F 65% 30.29 in 10.0 miles North 5.8 mph - N/A   Partly Cloudy
1:35 PM 39.2°F 24.8°F 56% 30.29 in 10.0 miles NNW 9.2 mph - N/A   Clear
1:55 PM 39.2°F 24.8°F 56% 30.30 in 10.0 miles NNW 8.1 mph - N/A   Clear
2:15 PM 39.2°F 24.8°F 56% 30.30 in 10.0 miles NNE 5.8 mph - N/A   Clear
2:35 PM 39.2°F 24.8°F 56% 30.30 in 10.0 miles NNE 5.8 mph - N/A   Clear
2:55 PM 39.2°F 24.8°F 56% 30.30 in 10.0 miles NE 5.8 mph - N/A   Clear
3:15 PM 39.2°F 24.8°F 56% 30.30 in 10.0 miles NE 4.6 mph - N/A   Clear
3:35 PM 39.2°F 24.8°F 56% 30.30 in 10.0 miles Calm Calm - N/A   Clear
3:55 PM 39.2°F 24.8°F 56% 30.30 in 10.0 miles NE 3.5 mph - N/A   Clear
4:15 PM 39.2°F 23.0°F 52% 30.31 in 10.0 miles Calm Calm - N/A   Clear
4:35 PM 37.4°F 24.8°F 60% 30.31 in 10.0 miles Calm Calm - N/A   Clear
4:55 PM 35.6°F 26.6°F 70% 30.31 in 10.0 miles Calm Calm - N/A   Clear
5:15 PM 33.8°F 26.6°F 75% 30.31 in 10.0 miles Calm Calm - N/A   Clear
5:35 PM 33.8°F 26.6°F 75% 30.32 in 10.0 miles Calm Calm - N/A   Clear
5:55 PM 32.0°F 26.6°F 80% 30.32 in 10.0 miles Calm Calm - N/A   Clear
6:15 PM 30.2°F 24.8°F 80% 30.32 in 10.0 miles Calm Calm - N/A   Clear
6:35 PM 30.2°F 26.6°F 86% 30.32 in 10.0 miles Calm Calm - N/A   Clear
6:55 PM 28.4°F 26.6°F 93% 30.33 in 10.0 miles Calm Calm - N/A   Clear
7:15 PM 28.4°F 24.8°F 86% 30.32 in 10.0 miles Calm Calm - N/A   Clear
7:35 PM 28.4°F 24.8°F 86% 30.32 in 10.0 miles Calm Calm - N/A   Clear
7:55 PM 28.4°F 24.8°F 86% 30.32 in 10.0 miles Calm Calm - N/A   Clear
8:15 PM 28.4°F 24.8°F 86% 30.32 in 10.0 miles Calm Calm - N/A   Clear
8:35 PM 28.4°F 24.8°F 86% 30.32 in 10.0 miles Calm Calm - N/A   Clear
8:55 PM 28.4°F 26.6°F 93% 30.32 in 10.0 miles Calm Calm - N/A   Clear
9:35 PM 28.4°F 24.8°F 86% 30.32 in 10.0 miles Calm Calm - N/A   Clear
9:55 PM 30.2°F 26.6°F 86% 30.32 in 10.0 miles Calm Calm - N/A   Clear
10:15 PM 26.6°F 24.8°F 93% 30.32 in 10.0 miles Calm Calm - N/A   Clear
10:35 PM 28.4°F 24.8°F 86% 30.32 in 10.0 miles Calm Calm - N/A   Clear
10:55 PM 28.4°F 24.8°F 86% 30.32 in 10.0 miles Calm Calm - N/A   Clear
11:15 PM 26.6°F 24.8°F 93% 30.32 in 7.0 miles Calm Calm - N/A   Clear
11:35 PM 26.6°F 24.8°F 93% 30.33 in 10.0 miles Calm Calm - N/A   Partly Cloudy
11:55 PM 26.6°F 23.0°F 86% 30.32 in 10.0 miles Calm Calm - N/A   Mostly Cloudy
Moon Phase
Jan. 11 Jan. 18 Jan. 26 Feb. 03 Feb. 10
Sunrise:07:51 AM (PST) Moon Rise:07:26 AM (PST)1/11
Sunset:04:47 PM (PST) Moon Set:05:16 PM (PST)1/11

Copyright © 2014 The Weather Underground, Inc.